Regional Weather Roundup
Issued by NWS

Home | Current Version | Previous Version | Graphics & Text | Print | Product List | Glossary On
Versions: 1 2 3 4 5 6 7 8 9 10 11 12 13 14 15 16 17 18 19 20 21 22 23 24 25 26 27 28 29 30 31 32 33 34 35 36 37 38 39 40 41 42 43 44 45 46 47 48 49 50
000
ASUS45 KABQ 200201
RWRNM
NEW MEXICO REGIONAL WEATHER ROUNDUP
NATIONAL WEATHER SERVICE ALBUQUERQUE NM
800 PM MDT SAT AUG 19 2017

NOTE: "FAIR" MEANS FEW OR NO CLOUDS BELOW 12,000 FEET AGL WITH NO
       SIGNIFICANT WEATHER OR OBSTRUCTIONS TO VISION.

      THIS PRODUCT IS RELEASED AS TWO VERSIONS.  ONE VERSION NEAR
      THE TOP OF THE HOUR CONTAINING PRELIMINARY DATA FROM ALBUQUERQUE
      AND OTHER STATIONS.  A FINAL VERSION WITH ADDITIONAL DATA IS
      ISSUED ABOUT 10 MINUTES AFTER THE HOUR.

NMZ501-503-504-510>518-200300-
NORTHWEST PLATEAU/NORTHCENTRAL MOUNTAINS

CITY           SKY/WX    TMP DP  RH WIND       PRES   REMARKS
FARMINGTON     FAIR      84  27  12 W6        30.04R
LOS ALAMOS     FAIR      68  46  45 SW12      30.28S
SANTA FE       CLOUDY    72  49  44 E13       30.22R
TAOS           MOCLDY    73  38  27 S3        30.25R
ANGEL FIRE     FAIR      60  44  56 SW8       30.35R

$$
NMZ402-403-502-505>509-200300-
WESTCENTRAL MOUNTAINS/SOUTHWEST MOUNTAINS

CITY           SKY/WX    TMP DP  RH WIND       PRES   REMARKS
GALLUP         FAIR      81  29  15 W6        30.15R
GRANTS         FAIR      82  28  14 E6        30.17R
SILVER CITY    FAIR      72  47  40 NW7       30.15R

$$
NMZ407-409-411-412-200300-
SOUTHERN DESERTS

CITY           SKY/WX    TMP DP  RH WIND       PRES   REMARKS
DEMING         FAIR      79  56  45 W5        30.07R
LAS CRUCES     FAIR      82  52  35 W7        30.08R
ALAMOGORDO     FAIR      82  52  34 NE15G24   30.07R
T OR C         FAIR      83  54  36 S13       30.07R

$$
NMZ519>523-200300-
CENTRAL VALLEYS/CENTRAL HIGHLANDS

CITY           SKY/WX    TMP DP  RH WIND       PRES   REMARKS
ALBUQUERQUE    MOCLDY    77  48  35 E18G28    30.10R
DOUBLE EAGLE   MOCLDY    75  45  33 SE13      30.14R
CLINES CORNERS FAIR      64  47  53 S6        30.26F
BELEN          NOT AVBL
SOCORRO        NOT AVBL

$$
NMZ524>526-539-540-200300-
SOUTHCENTRAL MOUNTAINS

CITY           SKY/WX    TMP DP  RH WIND       PRES   REMARKS
RUIDOSO        MOCLDY    63  50  63 NW5       30.29S

$$
NMZ527>531-200300-
NORTHEAST HIGHLANDS/NORTHEAST PLAINS

CITY           SKY/WX    TMP DP  RH WIND       PRES   REMARKS
LAS VEGAS      FAIR      62  51  67 SW13      30.26R
RATON          FAIR      68  50  52 S8        30.17R
CLAYTON        FAIR      71  51  49 S9        30.07F

$$
NMZ532>537-200300-
EASTCENTRAL PLAINS

CITY           SKY/WX    TMP DP  RH WIND       PRES   REMARKS
SANTA ROSA     MOCLDY    74  51  44 E8        30.12F
TUCUMCARI      FAIR      83  52  34 NW7       30.03R
CANNON AFB     MOCLDY    75  67  77 S6        30.08R
CLOVIS AIRPORT FAIR      74  65  73 S7        30.08R

$$
NMZ028-029-538-200300-
SOUTHEAST PLAINS

CITY           SKY/WX    TMP DP  RH WIND       PRES   REMARKS
ROSWELL        FAIR      82  58  43 S9        30.03R
ARTESIA        FAIR      81  59  47 SW5       30.03R
CARLSBAD       FAIR      76  71  85 SW5       30.00R
HOBBS          MOCLDY    82  59  44 S7G14     30.05R


$$



USA.gov is the U.S. government's official web portal to all federal, state and local government web resources and services.